Content
SEND FEEDBACK

Daily
Averages
Monthly
Summary
United States of America

GREENFIELD, MASSACHUSETTS


Home > North America > United States > Massachusetts
Elevation: 58 meters     Latitude: 42 37N     Longitude: 072 33W

WEATHER
 
SELECT A DAY
Number of Records: 215,004;   Date Range: 7/1/96 - 10/1/14
 
SHARE

PRINT THIS DATA

[ ← Previous Day ]
WEATHER ALMANAC - 7 APRIL, 2014
[ Next Day → ]
[ °F ]   °C
Weather ElementAverageHighLow
Temperature6.1 °C13.3 °C (11:52 am)-2.8 °C (5:52 am)
Dewpoint-3.7 °C3.9 °C (11:25 pm)-8.9 °C (8:52 pm)
Humidity57.8 %97 % (11:25 pm)25 % (5:52 pm)
Barometer1019.6 hPa1023.7 hPa (7:52 am)1011.9 hPa (11:52 pm)
Wind Speed6.8 km/h20.4 km/h (12:52 pm)
Weather ElementAverage
Visibility15.3 km
Wind DirectionENE (80.4 °)

Weather ElementTotal
Precipitation3.05 mm
Heating Degree Days13.1 (Base 18.3)
Averaged from 24 records on 7 April, 2014
WEATHER CONDITIONS BREAKOUT
WIND DIRECTION BREAKOUT
WEATHER BY HOUR - 7 APRIL, 2014
[ °F ]   °C
Local TimeTemperatureDewpointHumidityBarometerVisibilityWind DirectionWind SpeedGust SpeedPrecipitationEventsConditions
1:52 AM-1.7 °C-3.9 °C85 %1023 hPa16.1 kmNE (50°)5.6 km/hClear
2:52 AM-1.7 °C-3.3 °C89 %1022.7 hPa16.1 kmCalmClear
3:52 AM-2.2 °C-3.9 °C88 %1023 hPa16.1 kmCalmClear
4:52 AM-2.2 °C-4.4 °C85 %1022.4 hPa16.1 kmCalmClear
5:52 AM-2.8 °C-3.9 °C92 %1022.7 hPa16.1 kmCalmClear
6:52 AM-2.8 °C-4.4 °C89 %1023 hPa16.1 kmCalmClear
7:52 AM0 °C-2.8 °C82 %1023.7 hPa16.1 kmCalmClear
8:52 AM3.3 °C-2.8 °C65 %1023.7 hPa16.1 kmCalmClear
9:52 AM6.7 °C-3.3 °C49 %1023.4 hPa16.1 kmCalmClear
10:52 AM11.1 °C-3.3 °C37 %1022.7 hPa16.1 kmSSW (210°)11.1 km/hClear
11:52 AM13.3 °C-5 °C28 %1022.4 hPa16.1 kmSouth (190°)16.7 km/hClear
12:52 PM13.3 °C-5 °C28 %1022.4 hPa16.1 kmSouth (180°)20.4 km/hClear
1:52 PM13.3 °C-6.1 °C26 %1020.7 hPa16.1 kmSouth (180°)13 km/hClear
2:52 PM13.3 °C-6.1 °C26 %1019.6 hPa16.1 kmSouth (190°)18.5 km/hClear
3:52 PM12.8 °C-6.1 °C27 %1019 hPa16.1 kmSouth (190°)20.4 km/hMostly Cloudy
4:52 PM11.7 °C-6.7 °C27 %1019 hPa16.1 kmSSE (150°)7.4 km/hOvercast
5:52 PM11.7 °C-7.8 °C25 %1018.3 hPa16.1 kmSSE (160°)11.1 km/hOvercast
6:52 PM10 °C-6.7 °C31 %1017.6 hPa16.1 kmESE (110°)9.3 km/hOvercast
7:52 PM9.4 °C-7.8 °C29 %1016.3 hPa16.1 kmEast (80°)14.8 km/hOvercast
8:52 PM8.9 °C-8.9 °C28 %1016.3 hPa16.1 kmSSE (150°)7.4 km/hOvercast
9:52 PM5.6 °C2.2 °C79 %1015.6 hPa12.9 kmCalm0.51 mmRainLight Rain
10:52 PM5 °C2.8 °C86 %1013.5 hPa16.1 kmCalm1.02 mmRainLight Rain
11:25 PM4.4 °C3.9 °C97 %1012.2 hPa4.8 kmEast (90°)5.6 km/h0.76 mmRainRain
11:52 PM5 °C3.3 °C89 %1011.9 hPa12.9 kmCalm0.76 mmRainLight Rain
Hourly data recorded from KORE, located 0 kilometers away from Greenfield, Massachusetts







STORIES FROM OUR PARTNERS